When you browse on this site, cookies collect data to enhance your experience and personalize the content and advertising you see.
Visit our Privacy Policy to learn more. By continuing to use the site, you agree to this use of cookies and data.
  • In France
  • List of Countries
  • For 7 days
  • Water Temperature
  • Satellite Maps
  • Weather Map
  • Weather Widgets
  • user-avatar
    Login

    Hourly Weather Trubcheva

    Today, 21 May, Tuesday

    Time Temperature Precipitation Wind Pressure Humidity
    00:00 +14°C° 0 mm 2 mps 745 mmHg 83%
    01:00 +13°C° 0 mm 2 mps 745 mmHg 85%
    02:00 +13°C° 0 mm 2 mps 745 mmHg 86%
    03:00 +13°C° 0 mm 2 mps 745 mmHg 86%
    04:00 +13°C° 0 mm 2 mps 745 mmHg 86%
    05:00 +14°C° 0 mm 2 mps 745 mmHg 87%
    06:00 +15°C° 0 mm 2 mps 745 mmHg 81%
    07:00 +17°C° 0 mm 2 mps 745 mmHg 75%
    08:00 +19°C° 0 mm 2 mps 745 mmHg 69%
    09:00 +20°C° 0 mm 3 mps 745 mmHg 66%
    10:00 +21°C° 0 mm 3 mps 745 mmHg 62%
    11:00 +22°C° 0 mm 4 mps 745 mmHg 59%
    12:00 +22°C° 0 mm 4 mps 744 mmHg 58%
    13:00 +22°C° 0 mm 5 mps 744 mmHg 57%
    14:00 +22°C° 0 mm 5 mps 744 mmHg 56%
    15:00 +22°C° 0 mm 4 mps 743 mmHg 60%
    16:00 +21°C° 0 mm 4 mps 743 mmHg 64%
    17:00 +21°C° 0 mm 3 mps 742 mmHg 67%
    18:00 +19°C° 0 mm 3 mps 742 mmHg 71%
    19:00 +17°C° 0 mm 3 mps 742 mmHg 75%
    20:00 +14°C° 0 mm 3 mps 742 mmHg 79%
    21:00 +14°C° 0 mm 3 mps 742 mmHg 81%
    22:00 +13°C° 0 mm 3 mps 742 mmHg 82%
    23:00 +12°C° 0 mm 3 mps 742 mmHg 84%

    Tomorrow, 22 May, Wednesday

    Time Temperature Precipitation Wind Pressure Humidity
    00:00 +12°C° 0 mm 3 mps 741 mmHg 85%
    01:00 +12°C° 0 mm 3 mps 741 mmHg 86%
    02:00 +12°C° 0 mm 3 mps 741 mmHg 87%
    03:00 +12°C° 0 mm 3 mps 740 mmHg 88%
    04:00 +13°C° 0 mm 2 mps 740 mmHg 89%
    05:00 +13°C° 0 mm 2 mps 740 mmHg 89%
    06:00 +13°C° 0.3 mm 3 mps 740 mmHg 90%
    07:00 +14°C° 0.3 mm 3 mps 740 mmHg 91%
    08:00 +15°C° 0.3 mm 4 mps 739 mmHg 91%
    09:00 +15°C° 0.1 mm 4 mps 739 mmHg 89%
    10:00 +17°C° 0.1 mm 4 mps 739 mmHg 86%
    11:00 +18°C° 0.1 mm 4 mps 739 mmHg 84%
    12:00 +19°C° 0.1 mm 4 mps 738 mmHg 80%
    13:00 +20°C° 0.1 mm 4 mps 738 mmHg 77%
    14:00 +21°C° 0.1 mm 4 mps 738 mmHg 73%
    15:00 +21°C° 0.2 mm 3 mps 737 mmHg 74%
    16:00 +21°C° 0.2 mm 3 mps 737 mmHg 75%
    17:00 +21°C° 0.2 mm 3 mps 737 mmHg 77%
    18:00 +20°C° 0 mm 3 mps 736 mmHg 82%
    19:00 +18°C° 0 mm 2 mps 736 mmHg 86%
    20:00 +17°C° 0 mm 2 mps 736 mmHg 91%
    21:00 +16°C° 0 mm 2 mps 736 mmHg 92%
    22:00 +15°C° 0 mm 2 mps 736 mmHg 92%
    23:00 +15°C° 0 mm 2 mps 736 mmHg 93%

    Day after tomorrow, 23 May, Thursday

    Time Temperature Precipitation Wind Pressure Humidity
    00:00 +15°C° 0 mm 2 mps 736 mmHg 93%
    01:00 +14°C° 0 mm 2 mps 736 mmHg 93%
    02:00 +14°C° 0 mm 2 mps 736 mmHg 93%
    03:00 +14°C° 0 mm 2 mps 735 mmHg 93%
    04:00 +14°C° 0 mm 2 mps 735 mmHg 93%
    05:00 +15°C° 0 mm 2 mps 735 mmHg 93%
    06:00 +16°C° 0 mm 3 mps 736 mmHg 88%
    07:00 +18°C° 0 mm 3 mps 736 mmHg 83%
    08:00 +20°C° 0 mm 3 mps 736 mmHg 78%
    09:00 +21°C° 0.2 mm 3 mps 736 mmHg 71%
    10:00 +24°C° 0.2 mm 3 mps 736 mmHg 64%
    11:00 +25°C° 0.2 mm 3 mps 735 mmHg 58%
    12:00 +25°C° 0.2 mm 3 mps 735 mmHg 57%
    13:00 +25°C° 0.2 mm 3 mps 735 mmHg 56%
    14:00 +26°C° 0.2 mm 3 mps 735 mmHg 55%
    15:00 +25°C° 0.5 mm 3 mps 735 mmHg 60%
    16:00 +24°C° 0.5 mm 3 mps 735 mmHg 65%
    17:00 +24°C° 0.5 mm 3 mps 735 mmHg 71%
    18:00 +21°C° 0.2 mm 3 mps 735 mmHg 76%
    19:00 +19°C° 0.2 mm 2 mps 735 mmHg 80%
    20:00 +17°C° 0.2 mm 2 mps 735 mmHg 85%
    21:00 +17°C° 0 mm 2 mps 735 mmHg 87%
    22:00 +16°C° 0 mm 1 mps 735 mmHg 88%
    23:00 +16°C° 0 mm 1 mps 736 mmHg 89%

    24 May, Friday

    Time Temperature Precipitation Wind Pressure Humidity
    00:00 +15°C° 0 mm 1 mps 736 mmHg 89%
    01:00 +15°C° 0 mm 1 mps 736 mmHg 90%
    02:00 +15°C° 0 mm 1 mps 736 mmHg 90%
    03:00 +14°C° 0.3 mm 0 mps 736 mmHg 90%
    04:00 +15°C° 0.3 mm 0 mps 736 mmHg 90%
    05:00 +15°C° 0.3 mm 0 mps 736 mmHg 90%
    06:00 +18°C° 0.6 mm 1 mps 736 mmHg 86%
    07:00 +20°C° 0.6 mm 1 mps 736 mmHg 82%
    08:00 +21°C° 0.6 mm 1 mps 736 mmHg 78%
    09:00 +21°C° 1.5 mm 2 mps 736 mmHg 74%
    10:00 +23°C° 1.5 mm 2 mps 736 mmHg 70%
    11:00 +24°C° 1.5 mm 2 mps 736 mmHg 65%
    12:00 +24°C° 0.7 mm 2 mps 736 mmHg 64%
    13:00 +24°C° 0.7 mm 2 mps 736 mmHg 63%
    14:00 +25°C° 0.7 mm 2 mps 736 mmHg 62%
    15:00 +24°C° 0.5 mm 2 mps 736 mmHg 67%
    16:00 +24°C° 0.5 mm 2 mps 736 mmHg 71%
    17:00 +23°C° 0.5 mm 2 mps 735 mmHg 76%
    18:00 +21°C° 0.2 mm 3 mps 735 mmHg 80%
    19:00 +19°C° 0.2 mm 3 mps 735 mmHg 84%
    20:00 +18°C° 0.2 mm 3 mps 735 mmHg 88%
    21:00 +17°C° 0 mm 3 mps 735 mmHg 89%
    22:00 +16°C° 0 mm 3 mps 735 mmHg 91%
    23:00 +16°C° 0 mm 3 mps 734 mmHg 93%

    25 May, Saturday

    Time Temperature Precipitation Wind Pressure Humidity
    00:00 +16°C° 0.4 mm 2 mps 734 mmHg 93%
    01:00 +15°C° 0.4 mm 2 mps 734 mmHg 94%
    02:00 +15°C° 0.4 mm 2 mps 734 mmHg 94%
    03:00 +15°C° 0 mm 2 mps 734 mmHg 94%
    04:00 +15°C° 0 mm 2 mps 734 mmHg 94%
    05:00 +16°C° 0 mm 2 mps 734 mmHg 94%
    06:00 +17°C° 0.3 mm 3 mps 734 mmHg 88%
    07:00 +19°C° 0.3 mm 4 mps 734 mmHg 83%
    08:00 +20°C° 0.3 mm 4 mps 734 mmHg 78%
    09:00 +21°C° 0.3 mm 5 mps 734 mmHg 75%
    10:00 +21°C° 0.3 mm 5 mps 733 mmHg 72%
    11:00 +22°C° 0.3 mm 5 mps 733 mmHg 69%
    12:00 +22°C° 0.6 mm 5 mps 733 mmHg 70%
    13:00 +22°C° 0.6 mm 5 mps 733 mmHg 70%
    14:00 +22°C° 0.6 mm 5 mps 733 mmHg 71%
    15:00 +22°C° 0.5 mm 4 mps 732 mmHg 73%
    16:00 +21°C° 0.5 mm 4 mps 732 mmHg 76%
    17:00 +21°C° 0.5 mm 3 mps 732 mmHg 78%
    18:00 +20°C° 1.7 mm 3 mps 731 mmHg 82%
    19:00 +18°C° 1.7 mm 3 mps 731 mmHg 87%
    20:00 +17°C° 1.7 mm 2 mps 731 mmHg 91%
    21:00 +16°C° 0.5 mm 2 mps 731 mmHg 92%
    22:00 +16°C° 0.5 mm 2 mps 731 mmHg 94%
    23:00 +15°C° 0.5 mm 2 mps 731 mmHg 95%

    26 May, Sunday

    Time Temperature Precipitation Wind Pressure Humidity
    00:00 +15°C° 0 mm 2 mps 731 mmHg 95%
    01:00 +14°C° 0 mm 2 mps 731 mmHg 96%
    02:00 +14°C° 0 mm 2 mps 731 mmHg 96%
    03:00 +14°C° 0 mm 2 mps 731 mmHg 96%
    04:00 +13°C° 0 mm 3 mps 731 mmHg 97%
    05:00 +14°C° 0 mm 3 mps 731 mmHg 97%
    06:00 +14°C° 0 mm 3 mps 731 mmHg 94%
    07:00 +16°C° 0 mm 3 mps 732 mmHg 92%
    08:00 +16°C° 0 mm 3 mps 732 mmHg 90%
    09:00 +17°C° 0 mm 4 mps 732 mmHg 81%
    10:00 +19°C° 0 mm 4 mps 732 mmHg 72%
    11:00 +20°C° 0 mm 5 mps 732 mmHg 62%
    12:00 +21°C° 0 mm 4 mps 732 mmHg 61%
    13:00 +22°C° 0 mm 4 mps 732 mmHg 59%
    14:00 +22°C° 0 mm 4 mps 732 mmHg 57%
    15:00 +22°C° 0.3 mm 4 mps 733 mmHg 63%
    16:00 +21°C° 0.3 mm 4 mps 733 mmHg 69%
    17:00 +20°C° 0.3 mm 4 mps 733 mmHg 75%
    18:00 +19°C° 0.1 mm 4 mps 733 mmHg 80%
    19:00 +17°C° 0.1 mm 4 mps 734 mmHg 85%
    20:00 +14°C° 0.1 mm 3 mps 734 mmHg 90%
    21:00 +13°C° 0 mm 3 mps 734 mmHg 90%
    22:00 +12°C° 0 mm 3 mps 735 mmHg 89%
    23:00 +11°C° 0 mm 3 mps 735 mmHg 88%
    Show more